• en Suisse
  • Liste des pays
  • À 7 jours
  • Température de l'eau
  • Carte satellitaire
  • Carte météo
  • Widgets météo
  • user-avatar
    Se connecter

    Météo par heure à Bafoussam

    Ce jour, 16 Octobre, Mardi

    Heure Température Précipitation Vent Pression Humidité
    00:00 +16°C° 0.3 mm 1 m/s 645 mmHg 92%
    01:00 +16°C° 0 mm 1 m/s 644 mmHg 93%
    02:00 +16°C° 0.1 mm 1 m/s 644 mmHg 92%
    03:00 +16°C° 0.1 mm 1 m/s 644 mmHg 92%
    04:00 +16°C° 0.1 mm 1 m/s 644 mmHg 91%
    05:00 +18°C° 0.1 mm 1 m/s 645 mmHg 91%
    06:00 +18°C° 0.1 mm 1 m/s 645 mmHg 91%
    07:00 +18°C° 0.1 mm 1 m/s 645 mmHg 91%
    08:00 +20°C° 0.1 mm 1 m/s 646 mmHg 84%
    09:00 +22°C° 0.1 mm 1 m/s 647 mmHg 77%
    10:00 +24°C° 0.1 mm 1 m/s 647 mmHg 70%
    11:00 +25°C° 0.3 mm 1 m/s 647 mmHg 67%
    12:00 +26°C° 0.3 mm 2 m/s 646 mmHg 65%
    13:00 +26°C° 0.3 mm 2 m/s 646 mmHg 63%
    14:00 +26°C° 0.9 mm 2 m/s 645 mmHg 68%
    15:00 +25°C° 0.9 mm 2 m/s 645 mmHg 73%
    16:00 +24°C° 0.9 mm 1 m/s 644 mmHg 78%
    17:00 +23°C° 0.8 mm 1 m/s 644 mmHg 82%
    18:00 +21°C° 0.8 mm 1 m/s 644 mmHg 86%
    19:00 +17°C° 0.8 mm 0 m/s 644 mmHg 90%
    20:00 +17°C° 0.5 mm 0 m/s 644 mmHg 90%
    21:00 +19°C° 0.5 mm 1 m/s 645 mmHg 91%
    22:00 +19°C° 0.5 mm 1 m/s 645 mmHg 91%
    23:00 +18°C° 0.2 mm 1 m/s 645 mmHg 91%

    Demain, 17 Octobre, Mercredi

    Heure Température Précipitation Vent Pression Humidité
    00:00 +18°C° 0.2 mm 1 m/s 644 mmHg 91%
    01:00 +18°C° 0.2 mm 1 m/s 644 mmHg 91%
    02:00 +18°C° 0 mm 1 m/s 644 mmHg 91%
    03:00 +18°C° 0 mm 1 m/s 643 mmHg 91%
    04:00 +16°C° 0 mm 1 m/s 643 mmHg 90%
    05:00 +18°C° 0 mm 1 m/s 643 mmHg 90%
    06:00 +18°C° 0 mm 1 m/s 644 mmHg 89%
    07:00 +18°C° 0 mm 1 m/s 644 mmHg 89%
    08:00 +21°C° 0 mm 1 m/s 645 mmHg 80%
    09:00 +23°C° 0 mm 1 m/s 646 mmHg 72%
    10:00 +26°C° 0 mm 1 m/s 647 mmHg 63%
    11:00 +26°C° 0.1 mm 1 m/s 647 mmHg 61%
    12:00 +27°C° 0.1 mm 1 m/s 646 mmHg 59%
    13:00 +27°C° 0.1 mm 1 m/s 646 mmHg 57%
    14:00 +27°C° 0.5 mm 1 m/s 645 mmHg 62%
    15:00 +26°C° 0.5 mm 1 m/s 644 mmHg 67%
    16:00 +25°C° 0.5 mm 1 m/s 644 mmHg 73%
    17:00 +23°C° 0.6 mm 1 m/s 643 mmHg 79%
    18:00 +21°C° 0.6 mm 1 m/s 643 mmHg 86%
    19:00 +19°C° 0.6 mm 1 m/s 643 mmHg 92%
    20:00 +19°C° 0.4 mm 1 m/s 644 mmHg 93%
    21:00 +19°C° 0.4 mm 1 m/s 644 mmHg 94%
    22:00 +19°C° 0.4 mm 1 m/s 645 mmHg 94%
    23:00 +18°C° 0.4 mm 1 m/s 644 mmHg 94%

    Après-demain, 18 Octobre, Jeudi

    Heure Température Précipitation Vent Pression Humidité
    00:00 +18°C° 0.4 mm 1 m/s 644 mmHg 95%
    01:00 +18°C° 0.4 mm 1 m/s 644 mmHg 95%
    02:00 +18°C° 0.3 mm 1 m/s 643 mmHg 94%
    03:00 +18°C° 0.3 mm 1 m/s 643 mmHg 94%
    04:00 +18°C° 0.3 mm 1 m/s 642 mmHg 94%
    05:00 +18°C° 0 mm 1 m/s 643 mmHg 93%
    06:00 +18°C° 0 mm 1 m/s 643 mmHg 92%
    07:00 +19°C° 0 mm 1 m/s 644 mmHg 91%
    08:00 +19°C° 0.1 mm 0 m/s 645 mmHg 84%
    09:00 +21°C° 0.1 mm 0 m/s 645 mmHg 77%
    10:00 +23°C° 0.1 mm 0 m/s 646 mmHg 70%
    11:00 +23°C° 0.2 mm 0 m/s 646 mmHg 67%
    12:00 +26°C° 0.2 mm 1 m/s 645 mmHg 65%
    13:00 +27°C° 0.2 mm 1 m/s 644 mmHg 62%
    14:00 +26°C° 0.7 mm 1 m/s 644 mmHg 66%
    15:00 +25°C° 0.7 mm 1 m/s 643 mmHg 70%
    16:00 +24°C° 0.7 mm 1 m/s 643 mmHg 74%
    17:00 +23°C° 0.7 mm 1 m/s 643 mmHg 80%
    18:00 +21°C° 0.7 mm 1 m/s 643 mmHg 86%
    19:00 +19°C° 0.7 mm 1 m/s 643 mmHg 92%
    20:00 +19°C° 0.6 mm 1 m/s 643 mmHg 93%
    21:00 +19°C° 0.6 mm 1 m/s 644 mmHg 93%
    22:00 +19°C° 0.6 mm 1 m/s 644 mmHg 93%
    23:00 +19°C° 0.7 mm 1 m/s 644 mmHg 93%

    19 Octobre, Vendredi

    Heure Température Précipitation Vent Pression Humidité
    00:00 +18°C° 0.7 mm 1 m/s 644 mmHg 93%
    01:00 +18°C° 0.7 mm 1 m/s 643 mmHg 93%
    02:00 +18°C° 0.2 mm 1 m/s 643 mmHg 92%
    03:00 +18°C° 0.2 mm 1 m/s 643 mmHg 92%
    04:00 +18°C° 0.2 mm 1 m/s 642 mmHg 91%
    05:00 +18°C° 0 mm 1 m/s 643 mmHg 91%
    06:00 +18°C° 0 mm 1 m/s 643 mmHg 90%
    07:00 +19°C° 0 mm 1 m/s 644 mmHg 90%
    08:00 +21°C° 0 mm 1 m/s 645 mmHg 80%
    09:00 +24°C° 0 mm 1 m/s 646 mmHg 71%
    10:00 +26°C° 0 mm 1 m/s 647 mmHg 62%
    11:00 +27°C° 0 mm 1 m/s 646 mmHg 59%
    12:00 +27°C° 0 mm 1 m/s 646 mmHg 55%
    13:00 +28°C° 0 mm 1 m/s 645 mmHg 52%
    14:00 +27°C° 0.2 mm 1 m/s 645 mmHg 56%
    15:00 +27°C° 0.2 mm 1 m/s 644 mmHg 60%
    16:00 +26°C° 0.2 mm 1 m/s 643 mmHg 63%
    17:00 +24°C° 0.5 mm 1 m/s 643 mmHg 72%
    18:00 +22°C° 0.5 mm 1 m/s 643 mmHg 80%
    19:00 +20°C° 0.5 mm 1 m/s 643 mmHg 88%
    20:00 +19°C° 0.1 mm 1 m/s 643 mmHg 89%
    21:00 +19°C° 0.1 mm 1 m/s 644 mmHg 90%
    22:00 +19°C° 0.1 mm 1 m/s 644 mmHg 91%
    23:00 +18°C° 0 mm 1 m/s 644 mmHg 91%

    20 Octobre, Samedi

    Heure Température Précipitation Vent Pression Humidité
    00:00 +18°C° 0 mm 1 m/s 643 mmHg 91%
    01:00 +18°C° 0 mm 1 m/s 643 mmHg 92%
    02:00 +18°C° 0 mm 1 m/s 643 mmHg 91%
    03:00 +18°C° 0 mm 1 m/s 642 mmHg 90%
    04:00 +16°C° 0 mm 1 m/s 642 mmHg 89%
    05:00 +18°C° 0 mm 1 m/s 643 mmHg 89%
    06:00 +18°C° 0 mm 1 m/s 643 mmHg 88%
    07:00 +18°C° 0 mm 1 m/s 644 mmHg 87%
    08:00 +21°C° 0 mm 1 m/s 645 mmHg 78%
    09:00 +23°C° 0 mm 1 m/s 645 mmHg 69%
    10:00 +26°C° 0 mm 1 m/s 646 mmHg 60%
    11:00 +27°C° 0 mm 1 m/s 646 mmHg 56%
    12:00 +27°C° 0 mm 2 m/s 645 mmHg 53%
    13:00 +28°C° 0 mm 2 m/s 645 mmHg 49%
    14:00 +27°C° 0.1 mm 2 m/s 644 mmHg 53%
    15:00 +27°C° 0.1 mm 2 m/s 644 mmHg 57%
    16:00 +26°C° 0.1 mm 2 m/s 643 mmHg 61%
    17:00 +24°C° 0.4 mm 1 m/s 643 mmHg 69%
    18:00 +22°C° 0.4 mm 1 m/s 643 mmHg 77%
    19:00 +18°C° 0.4 mm 0 m/s 643 mmHg 85%
    20:00 +18°C° 0.7 mm 0 m/s 643 mmHg 85%
    21:00 +19°C° 0.7 mm 1 m/s 643 mmHg 86%
    22:00 +19°C° 0.7 mm 1 m/s 643 mmHg 87%
    23:00 +19°C° 0.2 mm 1 m/s 643 mmHg 87%

    21 Octobre, Dimanche

    Heure Température Précipitation Vent Pression Humidité
    00:00 +19°C° 0.2 mm 1 m/s 643 mmHg 87%
    01:00 +18°C° 0.2 mm 1 m/s 642 mmHg 87%
    02:00 +18°C° 0.1 mm 1 m/s 642 mmHg 88%
    03:00 +18°C° 0.1 mm 1 m/s 642 mmHg 88%
    04:00 +18°C° 0.1 mm 1 m/s 642 mmHg 88%
    05:00 +18°C° 0 mm 1 m/s 642 mmHg 88%
    06:00 +19°C° 0 mm 1 m/s 643 mmHg 88%
    07:00 +19°C° 0 mm 1 m/s 643 mmHg 88%
    08:00 +21°C° 0 mm 1 m/s 644 mmHg 80%
    09:00 +24°C° 0 mm 2 m/s 645 mmHg 72%
    10:00 +26°C° 0 mm 2 m/s 645 mmHg 64%
    11:00 +26°C° 0.4 mm 2 m/s 645 mmHg 64%
    12:00 +26°C° 0.4 mm 2 m/s 644 mmHg 64%
    13:00 +27°C° 0.4 mm 2 m/s 643 mmHg 65%
    14:00 +26°C° 0.5 mm 2 m/s 643 mmHg 66%
    15:00 +26°C° 0.5 mm 2 m/s 643 mmHg 68%
    16:00 +26°C° 0.5 mm 2 m/s 642 mmHg 70%
    17:00 +24°C° 0.6 mm 1 m/s 642 mmHg 76%
    18:00 +22°C° 0.6 mm 1 m/s 642 mmHg 83%
    19:00 +20°C° 0.6 mm 1 m/s 642 mmHg 89%
    20:00 +20°C° 0.2 mm 1 m/s 642 mmHg 90%
    21:00 +20°C° 0.2 mm 1 m/s 643 mmHg 90%
    22:00 +20°C° 0.2 mm 1 m/s 643 mmHg 90%
    23:00 +19°C° 0.4 mm 1 m/s 642 mmHg 90%
    Voir plus